Miscellaneous Local Product
Issued by NWS North Platte, NE

Home | Current Version | Previous Version | Text Only | Print | Product List | Glossary On
Versions: 1 2 3 4 5 6 7 8 9 10 11 12 13 14 15 16 17 18 19 20 21 22 23 24 25 26 27 28 29 30 31 32 33 34 35 36 37 38 39 40 41 42 43 44 45 46 47 48 49 50
698
AXUS43 KLBF 231310
MISLBF


WESTERN AND NORTH CENTRAL NEBRASKA HOURLY WEATHER ROUNDUP
NATIONAL WEATHER SERVICE NORTH PLATTE NE
800 AM CDT THU MAR 23 2017

NOTE: "FAIR" INDICATES FEW OR NO CLOUDS BELOW 12,000 FEET WITH NO
SIGNIFICANT WEATHER AND/OR OBSTRUCTIONS TO VISIBILITY.

NOTE: STATIONS NOT REPORTING VARIABLES SUCH AS SKY/WEATHER OR
PRESSURE ARE PROVIDED BY RAWS AND APRS NETWORKS AND ARE NOT UNDER
NATIONAL WEATHER SERVICE QUALITY CONTROL.

...OBSERVATIONS IN AND NEAR THE EASTERN PANHANDLE OF NEBRASKA...

CITY           SKY/WX    TMP DP  RH WIND       PRES   REMARKS
PINE RIDGE     PTCLDY    43  37  79 SW13      29.66F
CHADRON        CLOUDY    38  33  82 CALM      29.66F
ALLIANCE       CLOUDY    37  35  92 S10       29.68F WCI  30
SIDNEY         CLOUDY    32  31  96 NW7       29.71R FOG     WCI  26
CRESCENT LAKE    N/A     39  38  97 S9G16       N/A  WCI  33
$$

...OBSERVATIONS IN NORTHERN NEBRASKA AND FAR SOUTHERN SOUTH DAKOTA...

CITY           SKY/WX    TMP DP  RH WIND       PRES   REMARKS
WINNER         FAIR      47  33  58 S12G22    29.76R
VALENTINE      CLOUDY    45  35  68 S10       29.74S
THEDFORD       CLOUDY    45  38  78 S16       29.75F
AINSWORTH      CLOUDY    44  36  73 S14       29.76S
O`NEILL        CLOUDY    46  33  60 S22G28    29.80F
ORD            CLOUDY    47  35  63 S20G32    29.81F
BROKEN BOW     CLOUDY    46  32  58 S16G24    29.78S
VALENTINE NWR    N/A     43  35  73 S15G23      N/A
HALSEY           N/A     43  36  76 S8G18       N/A
BUTTE            N/A     43  33  68 S12G21      N/A
CHAMBERS         N/A     46  34  62 S6          N/A
EWING            N/A     44  32  63 S10G18      N/A
$$

...OBSERVATIONS IN SOUTHWEST NEBRASKA AND FAR NORTHEAST COLORADO...

CITY           SKY/WX    TMP DP  RH WIND       PRES   REMARKS
WRAY           FAIR      46  45  93 S9        29.68F
HOLYOKE        FOG       37  36  93 E8        29.70S VSB<1/4 WCI  31
IMPERIAL       CLOUDY    41  39  93 SE10      29.70F FOG
OGALLALA       CLOUDY    43  40  88 SE8       29.71F
NORTH PLATTE   CLOUDY    46  42  86 SE9       29.76S
MCCOOK         FOG       48  48 100 SE13      29.74F VSB 1
LEXINGTON      CLOUDY    46  43  89 SE14      29.78F FOG
STAPLETON        N/A     43  40  88 CALM        N/A
GOTHENBURG       N/A     46  40  80 SE9         N/A
CALLAWAY         N/A     44  39  84 S16         N/A
$$

...OBSERVATIONS IN CENTRAL LINCOLN COUNTY AREA...

CITY           SKY/WX    TMP DP  RH WIND       PRES   REMARKS
N.P. AIRPORT   CLOUDY    46  42  86 SE9       29.76S
N.P. DOWNTOWN    N/A     45  42  89 SE3G12      N/A
N.P. SOUTHEAST   N/A     45  42  89 SE5G12      N/A
N.P. HILLCREST   N/A     45  42  89 S8          N/A
$$

...SOME OBSERVATIONS FROM AROUND THE REGION...

CITY           SKY/WX    TMP DP  RH WIND       PRES   REMARKS
DENVER         CLOUDY    46  28  49 SW12      29.70F
LIMON          FOG       38  38 100 CALM      29.75F VSB<1/4
ASPEN          CLOUDY    41  31  67 S6        29.83S
LARAMIE        CLOUDY    27  22  81 SE10      29.75F WCI  17
GILLETTE       MOCLDY    38  38 100 CALM      29.68S
CHEYENNE       CLOUDY    38  28  67 NW8       29.73F WCI  32
SCOTTSBLUFF    CLOUDY    34  30  85 E8        29.69S WCI  27
GRAND ISLAND   CLOUDY    48  41  76 SE20G30   29.86F
OMAHA          CLOUDY    47  27  45 SE20      29.99F
SIOUX FALLS    MOCLDY    39  25  57 SE16      29.93F WCI  30
PIERRE         CLOUDY    40  31  70 SE13      29.73F WCI  32
RAPID CITY     CLOUDY    47  40  76 N13       29.66S
BISMARCK       LGT RAIN  34  31  88 E8        29.75F WCI  27
KANSAS CITY    CLOUDY    52  31  44 SE15      30.06F
HILL CITY      CLOUDY    52  52 100 SE10      29.80F FOG
WICHITA        PTCLDY    54  49  83 SE17      29.94S
DODGE CITY     CLOUDY    58  56  93 S17G25    29.83S FOG
OKLAHOMA CITY  MOCLDY    56  53  90 S21G30    29.96S
DALLAS         MOCLDY    67  62  84 S18G26    30.01S
AMARILLO       CLOUDY    59  57  93 S17       29.87S
$$




USA.gov is the U.S. government's official web portal to all federal, state and local government web resources and services.